This is the latest recevied weather packets stored in our database for station/object KN6WGU. If no packets are shown the sender has not sent any weather packets the latest 10 day(s).
| Time | Temp. | Humidity | Pressure | Rain* | Wind** | Luminosity | Snow |
|---|---|---|---|---|---|---|---|
| 1777851804 | 15° C | 40% | 1004.7 hPa | 0 mm | - | 23 W/m² | - |
| 1777851502 | 15° C | 39% | 1004.8 hPa | 0 mm | - | 26 W/m² | - |
| 1777851197 | 15° C | 39% | 1004.9 hPa | 0 mm | - | 28 W/m² | - |
| 1777850894 | 15.56° C | 39% | 1004.9 hPa | 0 mm | - | 34 W/m² | - |
| 1777850592 | 15.56° C | 39% | 1004.9 hPa | 0 mm | - | 34 W/m² | - |
| 1777850290 | 15.56° C | 40% | 1005 hPa | 0 mm | - | 54 W/m² | - |
| 1777849986 | 15.56° C | 40% | 1004.8 hPa | 0 mm | - | 34 W/m² | - |
| 1777849682 | 16.11° C | 38% | 1004.9 hPa | 0 mm | - | 73 W/m² | - |
| 1777849379 | 16.11° C | 40% | 1005 hPa | 0 mm | - | 104 W/m² | - |
| 1777849077 | 15.56° C | 39% | 1005 hPa | 0 mm | - | 111 W/m² | - |
| 1777848772 | 15.56° C | 39% | 1005.2 hPa | 0 mm | - | 87 W/m² | - |
| 1777848469 | 15.56° C | 39% | 1005 hPa | 0 mm | - | 59 W/m² | - |
| 1777848167 | 15.56° C | 38% | 1005.1 hPa | 0 mm | - | 57 W/m² | - |
| 1777847864 | 15.56° C | 38% | 1004.9 hPa | 0 mm | - | 65 W/m² | - |
| 1777847562 | 15.56° C | 40% | 1005.2 hPa | 0 mm | - | 72 W/m² | - |
| 1777847257 | 15.56° C | 40% | 1005.1 hPa | 0 mm | - | 68 W/m² | - |
| 1777846955 | 16.11° C | 40% | 1004.9 hPa | 0 mm | - | 73 W/m² | - |
| 1777846654 | 15.56° C | 38% | 1005 hPa | 0 mm | - | 65 W/m² | - |
| 1777846351 | 16.11° C | 39% | 1005.2 hPa | 0 mm | - | 66 W/m² | - |
| 1777846047 | 16.11° C | 39% | 1005.1 hPa | 0 mm | - | 92 W/m² | - |
| 1777845744 | 16.11° C | 39% | 1005.1 hPa | 0 mm | - | 79 W/m² | - |
| 1777845441 | 16.11° C | 39% | 1005.2 hPa | 0 mm | - | 107 W/m² | - |
| 1777845138 | 16.11° C | 39% | 1005.2 hPa | 0 mm | - | 82 W/m² | - |
| 1777844837 | 16.67° C | 37% | 1005.2 hPa | 0 mm | - | 85 W/m² | - |
| 1777844533 | 16.11° C | 39% | 1005 hPa | 0 mm | - | 142 W/m² | - |
* Rain latest hour (hover to see other rain measurements)
** Current wind speed in m/s (hover to see current wind gust speed)